Location: Newark
(45.9456°N, 15.4064°E)
Time: 12:22:48
(UTC+00:00)

Courier 1B Rocket - Pass Details

Date: 21 January 2020
Orbit: 920 x 1202 km, 28.2° (Epoch: 19 February)

Event Time Altitude Azimuth Distance (km) Brightness Sun altitude
Rises 13:03:40 0° 228° (SW) 3,730 9.4 19.2°
Reaches altitude 10° 13:07:43 10° 205° (SSW) 2,722 9.8 18.9°
Maximum altitude 13:11:05 15° 174° (S) 2,361 8.1 18.6°
Drops below altitude 10° 13:14:23 10° 142° (SE) 2,648 7.6 18.3°
Sets 13:18:14 0° 119° (ESE) 3,563 7.9 17.9°
